Location: ?ejkovice
(49.0137°N, 14.3821°E)
Time: 20:30:58
(UTC+00:00)

Cosmos 1733 Rocket - Pass Details

Date: 23 May 2024
Orbit: 600 x 624 km, 82.5° (Epoch: 20 June)

Event Time Altitude Azimuth Distance (km) Brightness Sun altitude
Rises 00:24:51 0° 341° (NNW) 2,866 7.3 -17.8°
Reaches altitude 10° 00:27:15 10° 331° (NNW) 1,960 6.2 -17.6°
Maximum altitude 00:31:02 30° 270° (W) 1,088 4.1 -17.4°
Enters shadow 00:32:05 27° 243° (WSW) 1,178 4.1 -17.3°
